THORAD AGENA D DEB, 4161

Orbit data source: Space-Track

THORAD AGENA D DEB, 4161 is space debris in LEO originally from a launch on Tue, 30 Sep 1969 UTC launched from the Air Force Western Test Range (AFWTR). Debris objects in space refer to the collection of defunct objects orbiting the Earth. Examples of debris include non-operational satellites, rocket bodies, and fragments generated from explosions, collisions, or faulty payload assembly.

Loading next visibility...
Identifier
4161, 1969-082AD
Orbit
LEO
Country
Flag of USUS
Related business
Manufacturer
Unknown
Mission
Spacecraft
Bus & Motor
Unknown
Mass
Unknown
Launch date (UTC)
1969-09-30 (57 years ago)
Launch vehicle
Unknown
Launch site
Air Force Western Test Range (AFWTR)
Object type
Payload
Rocket body
Debris
Shape & HBR
Unknown shape, 0.2 m
Radar Cross Section
Medium (>0.1 m² and <1 m²)

Expand to show TLE details & history
Last TLE update: 2 days ago

TLE from 2 days ago
0 THORAD AGENA D DEB
1  4161U 69082AD  26171.45099970 -.00000002  00000-0  34826-4 0  9997
2  4161  70.0179 204.2045 0063462 282.1308  77.2695 13.99413750895167
Epoch: 2026-06-20T10:49Z
TLE epoch observation values (Epoch: 2026-06-20T10:49:26.374Z)
Latitude
0.00005°
Longitude
133.17919°
Altitude
888.249 km
Speed
7.413 km/s
True Right ascension
13h 36m 49s
True Declination
0° 00' 00"
Sunlit
Object was in daylight at epoch
Visualization orbit readout
Latitude
Unknown
Longitude
Unknown
Altitude
Unknown
Speed
Unknown
Apparent Right ascension
Unknown
Apparent Declination
Unknown
Sunlit
N/A
Visualization observer readout
Local Sidereal Time
08:38:48
Azimuth
Unknown
Elevation
Unknown
Doppler factor
Unknown
Orbital elements
Apogee altitude
940.013 km
Perigee altitude
847.714 km
Semi-major axis
7,272.001 km
Eccentricity
0.00635
Inclination
70.0179°
RAAN
204.2045°
Arg. of periapsis
282.1308°
True anomaly
77.98007°
Mean anomaly
77.2695°
Eccentric anomaly
77.62466°
Mean motion
3.49995 °/min
Orbital period
102.86 mins
BSTAR
0.000034826

Documentation

Showing up to 5 results
|